www.pogodaiklimat.ru

Погода и климат >> Архив погоды >> Перу >> Lima


АРХИВ ПОГОДЫ в Lima

Время (UTC), дата Ветер
(напр.,м/с)
 
Видим.   Явления Облачность Т
(С)
Тd
(С)
f
(%)
Тe
(С)
Тes
(С)
Комфортность P
(гПа)
Po
(гПа)
Тmin
(С)
Tmax
(С)
R
(мм)
R24
(мм)
S
(см)
12 12.12 8000 м н/о +19.3 +18.0 92 +22 +23 комфорт 1013.6 1012.0 +17.6
15 12.12 СЗ 4 5000 м мгла 4/0
[Ci fib]
+21.7 +17.9 79 +26 +37 душно 1013.8 1012.2
18 12.12 нст 5 9000 м мгла {туман} 10/10 450 м
[St Ci fib]
+22.5 +17.9 75 +28 +28 душно 1012.6 1011.0
21 12.12 нст 4 10 км 6/0
[Ac trans]
+23.4 +17.7 70 +29 +32 душно 1011.4 1009.7
00 13.12 Ю 5 10 км 8/3 360 м
[St Ac trans]
+20.6 +18.0 85 +24 +24 комфорт 1013.5 1011.9 +24.1
03 13.12 Ю 5 10 км 4/0
[Ac trans]
+20.0 +17.4 85 +23 +23 комфорт 1014.7 1013.1
06 13.12 Ю 4 10 км ясно +19.4 +16.7 84 +21 +21 комфорт 1013.7 1012.1
09 13.12 Ю 2 10 км ясно +18.2 +16.9 92 +19 +19 по сезону 1013.0 1011.3
12 13.12 З 2 10 км 4/0
[Ci fib]
+19.8 +18.0 89 +23 +25 комфорт 1014.0 1012.4 +18.0
18 13.12 ЮЗ 4 10 км 10/0
[Ci fib]
+24.2 +17.6 67 +28 +40 душно 1013.5 1011.9
21 13.12 Ю 6 10 км 8/3 300 м
[St Ci fib]
+22.6 +17.7 74 +28 +29 душно 1012.2 1010.6
00 14.12 Ю 5 10 км 8/3 300 м
[St Ac trans]
+20.4 +18.2 87 +24 +24 комфорт 1013.6 1012.0 +25.5
03 14.12 Ю 3 10 км 8/0
[Ac trans]
+20.2 +18.0 87 +24 +24 комфорт 1015.5 1013.9
06 14.12 Ю 3 10 км 3/0
[Ac trans]
+19.4 +17.4 88 +22 +22 комфорт 1014.9 1013.3
09 14.12 Ю 2 10 км 5/0
[Ac trans]
+19.6 +17.6 88 +23 +23 комфорт 1013.8 1012.2
12 14.12 нст 2 10 км 3/0
[Ac trans]
+20.1 +17.5 85 +24 +26 комфорт 1015.7 1014.1 +18.4
15 14.12 З 3 10 км ясно +23.6 +18.3 72 +28 +41 душно 1016.2 1014.6
18 14.12 нст 3 10 км ясно +25.6 +17.7 62 +30 +47 душно 1014.6 1013.0
21 14.12 Ю 5 10 км ясно +24.8 +17.7 65 +29 +33 душно 1012.3 1010.7
00 15.12 Ю 5 10 км 6/0
[Ac trans Ci fib]
+21.3 +18.5 84 +26 +26 душно 1013.6 1012.0 +26.8
03 15.12 Ю 5 10 км 5/0
[Ac lent]
+20.8 +18.4 86 +25 +25 комфорт 1015.4 1013.8
06 15.12 Ю 3 10 км ясно +19.8 +18.1 90 +23 +23 комфорт 1014.7 1013.1
09 15.12 Ю 2 10 км 4/0
[Ac trans]
+19.2 +17.7 91 +22 +22 комфорт 1013.7 1012.1
12 15.12 ЮЗ 2 6000 м 10/8 240 м
[St]
+20.7 +18.9 89 +26 +26 душно 1014.3 1012.7 +19.0
15 15.12 нст 3 10 км 10/10 570 м
[Sc]
+22.1 +18.5 80 +27 +27 душно 1014.9 1014.1
18 15.12 нст 4 10 км 1/1 420 м
[St]
+23.6 +18.6 74 +28 +42 душно 1013.6 1011.8
21 15.12 Ю 6 9000 м ясно +23.2 +18.2 73 +29 +32 душно 1011.6 1010.0
00 16.12 Ю 6 10 км 6/6 300 м
[St]
+20.8 +17.9 83 +25 +25 комфорт 1012.8 1011.2 +24.7
03 16.12 Ю 4 10 км 8/8 300 м
[St]
+20.5 +18.3 87 +24 +24 комфорт 1014.3 1012.7
06 16.12 Ю 3 10 км ясно +19.9 +18.1 89 +23 +23 комфорт 1012.8 1011.2
09 16.12 Ю 2 10 км 6/0
[Ac trans]
+19.7 +18.0 90 +23 +23 комфорт 1012.5 1010.7
12 16.12 ЮЗ 1 10 км 6/0
[Ac trans]
+20.2 +18.4 89 +25 +26 комфорт 1014.5 1012.7 +19.0
15 16.12 нст 3 10 км 5/0
[Ac trans]
+23.2 +18.6 75 +29 +38 душно 1014.8 1013.2
18 16.12 нст 4 10 км 3/3 540 м
[St]
+25.2 +18.6 67 +30 +39 душно 1013.6 1011.8
21 16.12 Ю 5 10 км 3/3 500 м
[St]
+23.4 +18.7 75 +30 +32 очень
душно
1012.0 1010.4
00 17.12 Ю 5 10 км 6/6 300 м
[St]
+20.9 +18.3 85 +25 +25 комфорт 1013.0 1011.4 +25.7
03 17.12 Ю 5 10 км 6/6 400 м
[St]
+20.9 +18.1 84 +25 +25 комфорт 1015.2 1013.6
06 17.12 Ю 5 10 км 6/0
[Ac trans]
+20.5 +17.7 84 +24 +24 комфорт 1013.9 1012.3
09 17.12 Ю 4 10 км 10/10 480 м
[St]
+20.4 +18.2 87 +24 +24 комфорт 1012.6 1011.9
12 17.12 Ю 3 10 км 10/4 600 м
[Sc Ac trans]
+20.8 +18.0 84 +25 +25 комфорт 1013.3 1011.7 +20.2
15 17.12 нст 4 10 км 3/3 500 м
[St]
+24.1 +18.2 70 +29 +37 душно 1014.2 1012.6
18 17.12 нст 5 10 км 4/4 500 м
[St]
+24.2 +18.3 70 +29 +36 душно 1012.0 1010.4
21 17.12 Ю 6 10 км 4/4 360 м
[St]
+23.0 +18.2 74 +29 +30 очень
душно
1010.5 1008.9
00 18.12 Ю 5 10 км 10/10 360 м
[St]
+20.9 +18.0 83 +25 +25 комфорт 1012.3 1010.5 +25.4
03 18.12 Ю 4 10 км 6/6 360 м
[St]
+20.5 +17.9 85 +24 +24 комфорт 1014.2 1012.6
06 18.12 Ю 3 10 км 10/10 420 м
[St]
+20.9 +18.1 84 +26 +26 душно 1013.3 1011.7
09 18.12 Ю 2 10 км 10/10 480 м
[St]
+21.0 +18.1 84 +26 +26 душно 1012.4 1010.7
12 18.12 Ю 2 10 км 10/10 570 м
[St]
+21.6 +17.9 79 +26 +26 душно 1014.5 1012.8 +20.4
15 18.12 Ю 2 10 км 10/10 600 м
[Sc]
+22.9 +17.7 73 +28 +28 душно 1014.6 1013.0
18 18.12 Ю 5 10 км 5/5 700 м
[Sc]
+25.4 +17.7 62 +30 +35 душно 1013.1 1011.5
21 18.12 Ю 6 10 км ясно +24.7 +17.8 65 +29 +31 душно 1011.7 1010.2
00 19.12 Ю 5 10 км 6/0
[Ac trans]
+21.7 +18.9 84 +27 +27 душно 1013.5 1011.9 +26.0
03 19.12 Ю 4 10 км 4/0
[Ac trans]
+21.2 +19.0 87 +26 +26 душно 1015.6 1014.0
06 19.12 Ю 4 10 км 8/3 240 м
[St Ac trans]
+20.7 +19.0 90 +25 +25 комфорт 1014.4 1012.8

 

Местоположение метеостанции Lima (Перу): широта -12.00 долгота -77.11 высота над уровнем моря 13 м.

В архиве по умолчанию представлена погода в Lima за последнюю неделю. Архивные данные за месяц целиком и за предыдущие месяцы, начиная с января 2011 года, Вы можете получить, выбрав интересующий диапазон дат из раскрывающегося списка и нажав кнопку "Ввод!".


*Определитесь, кто Вы:
робот инопланетянин человек

Внимание! Время в таблицах - всемирное. Для получения местного времени необходимо прибавить поправку, которая в Lima равна -5 ч.

Смотрите также архив погоды в соседних городах и на ближайших метеорологических станциях:

Погода в Pisco (Перу) (216 км)
Погода в Huanuco (Перу) (257 км)
Погода в Anta (Перу) (300 км)
Погода в Tingo Maria (Перу) (326 км)
Погода в Ayacucho (Перу) (341 км)
Погода в Chimbote (Перу) (354 км)
Погода в Nazca (Перу) (394 км)
Погода в Andahualaylas (Перу) (450 км)
Погода в Trujillo (Перу) (487 км)
Погода в Pucallpa (Перу) (491 км)

Пояснения к столбцам:

Ветер - указаны скорость ветра в м/с - средняя за 10 мин, порывы в срок и между сроками (в фигурных скобках) и направление, откуда дует ветер: С - северный, СВ - северо-восточный, В - восточный, ЮВ - юго-восточный, Ю - южный, ЮЗ - юго-западный, З - западный, СЗ - северо-западный.
Видимость - горизонтальная дальность видимости в метрах или километрах. При видимости от 1 до 10 км при отсутствии осадков обычно наблюдается дымка, при ухудшении видимости до 1 км и менее - туман. В сухую погоду видимость может ухудшаться дымом, пылью или мглою.
Явления - указаны атмосферные явления, наблюдавшиеся в срок или в последний час перед сроком; фигурными скобками обозначены явления, наблюдавшиеся между сроками (за 1-3 часа до срока); квадратными скобками обозначены град или гололедные отложения с указанием их диаметра в мм.
Облачность - указаны через наклонную черту общая и нижняя облачность в баллах и высота нижней границы облаков в метрах; квадратными скобками обозначены формы облаков: Ci - перистые, Cs - перисто-слоистые, Cc - перисто-кучевые, Ac - высококучевые, As - высокослоистые, Sc - слоисто-кучевые, Ns - слоисто-дождевые, Cu - кучевые, Cb - кучево-дождевые. Подробнее классификацию облаков см. в Атласе облаков (PDF).
T - Температура воздуха - температура, измеренная на высоте 2 м над землей.
Td - Температура точки росы - температура, при понижении до которой содержащийся в воздухе водяной пар достигнет насыщения.
f - Относительная влажность воздуха - влажноcть воздуха, измеренная на высоте 2 м над землей.
Te - Эффективная температура - температура, которую ощущает одетый по сезону человек в тени. Характеристика душности погоды. При расчете учитывается влияние влажности воздуха и скорости ветра на теплоощущения человека.
Tes - Эффективная температура на солнце - температура, которую ощущает человек, с поправкой на солнечный нагрев. Характеристика знойности погоды. Зависит от высоты солнца над горизонтом, облачности и скорости ветра. Ночью, в пасмурную погоду, а также при ветре 12 м/с и более поправка равна нулю.
P - Атмосферное давление - приведенное к уровню моря атмосферное давление.
Po - Атмосферное давление - измеренное на уровне метеостанции атмосферное давление.
Tmin - Минимальная температура - минимум температуры воздуха на высоте 2 м над землей.
Tmax - Максимальная температура - максимум температуры воздуха на высоте 2 м над землей.
R - Количество осадков - Количество выпавших осадков за период времени, мм. При наведении курсора мыши на число - период времени, за который выпало указанное количество осадков.
R24 - Количество осадков - Количество выпавших осадков за 24 часа, мм.
S - Снежный покров - Высота снежного покрова, см. При наведении курсора мыши на число - состояние снежного покрова и степень покрытия местности в баллах.